• In Latvia
  • List of Countries
  • For 7 days
  • Water Temperature
  • Satellite Maps
  • Weather Map
  • Weather Widgets
  • user-avatar
    Login

    Hourly Weather Salta

    Today, 28 April, Friday

    Time Temperature Precipitation Wind Pressure Humidity
    00:00 +9°C° 0 mm 1 mps 650 mmHg 79%
    01:00 +9°C° 0 mm 1 mps 650 mmHg 77%
    02:00 +9°C° 0 mm 1 mps 650 mmHg 79%
    03:00 +9°C° 0 mm 1 mps 650 mmHg 77%
    04:00 +9°C° 0 mm 1 mps 650 mmHg 75%
    05:00 +8°C° 0 mm 1 mps 650 mmHg 73%
    06:00 +10°C° 0 mm 1 mps 651 mmHg 67%
    07:00 +12°C° 0 mm 1 mps 652 mmHg 60%
    08:00 +14°C° 0 mm 1 mps 653 mmHg 53%
    09:00 +16°C° 0 mm 1 mps 654 mmHg 46%
    10:00 +19°C° 0 mm 2 mps 655 mmHg 39%
    11:00 +21°C° 0 mm 2 mps 655 mmHg 31%
    12:00 +22°C° 0 mm 3 mps 655 mmHg 31%
    13:00 +22°C° 0 mm 3 mps 655 mmHg 30%
    14:00 +24°C° 0 mm 3 mps 654 mmHg 29%
    15:00 +22°C° 0 mm 3 mps 654 mmHg 33%
    16:00 +21°C° 0 mm 3 mps 653 mmHg 37%
    17:00 +20°C° 0 mm 2 mps 653 mmHg 40%
    18:00 +17°C° 0 mm 2 mps 653 mmHg 50%
    19:00 +15°C° 0 mm 2 mps 653 mmHg 60%
    20:00 +12°C° 0 mm 1 mps 653 mmHg 70%
    21:00 +11°C° 0 mm 1 mps 653 mmHg 73%
    22:00 +11°C° 0 mm 1 mps 653 mmHg 75%
    23:00 +10°C° 0 mm 1 mps 653 mmHg 77%

    Tomorrow, 29 April, Saturday

    Time Temperature Precipitation Wind Pressure Humidity
    00:00 +10°C° 0 mm 1 mps 652 mmHg 77%
    01:00 +9°C° 0 mm 1 mps 652 mmHg 78%
    02:00 +9°C° 0 mm 1 mps 652 mmHg 78%
    03:00 +9°C° 0 mm 1 mps 651 mmHg 78%
    04:00 +9°C° 0 mm 1 mps 651 mmHg 77%
    05:00 +8°C° 0 mm 1 mps 651 mmHg 77%
    06:00 +10°C° 0 mm 1 mps 652 mmHg 70%
    07:00 +13°C° 0 mm 1 mps 653 mmHg 62%
    08:00 +15°C° 0 mm 1 mps 654 mmHg 54%
    09:00 +18°C° 0 mm 1 mps 655 mmHg 47%
    10:00 +19°C° 0 mm 2 mps 655 mmHg 41%
    11:00 +21°C° 0 mm 3 mps 655 mmHg 34%
    12:00 +22°C° 0 mm 3 mps 655 mmHg 33%
    13:00 +22°C° 0 mm 3 mps 654 mmHg 33%
    14:00 +24°C° 0 mm 3 mps 654 mmHg 32%
    15:00 +22°C° 0 mm 3 mps 654 mmHg 37%
    16:00 +21°C° 0 mm 3 mps 653 mmHg 41%
    17:00 +20°C° 0 mm 3 mps 653 mmHg 46%
    18:00 +17°C° 0 mm 2 mps 653 mmHg 56%
    19:00 +15°C° 0 mm 2 mps 653 mmHg 67%
    20:00 +12°C° 0 mm 1 mps 653 mmHg 78%
    21:00 +12°C° 0 mm 1 mps 653 mmHg 79%
    22:00 +11°C° 0 mm 1 mps 653 mmHg 81%
    23:00 +11°C° 0 mm 1 mps 653 mmHg 82%

    Day after tomorrow, 30 April, Sunday

    Time Temperature Precipitation Wind Pressure Humidity
    00:00 +10°C° 0 mm 1 mps 653 mmHg 82%
    01:00 +10°C° 0 mm 1 mps 652 mmHg 83%
    02:00 +10°C° 0 mm 1 mps 652 mmHg 83%
    03:00 +10°C° 0 mm 1 mps 652 mmHg 83%
    04:00 +9°C° 0 mm 1 mps 651 mmHg 83%
    05:00 +9°C° 0 mm 1 mps 651 mmHg 83%
    06:00 +11°C° 0 mm 1 mps 652 mmHg 76%
    07:00 +13°C° 0 mm 1 mps 653 mmHg 70%
    08:00 +15°C° 0 mm 1 mps 654 mmHg 63%
    09:00 +18°C° 0 mm 1 mps 655 mmHg 55%
    10:00 +19°C° 0 mm 2 mps 655 mmHg 47%
    11:00 +21°C° 0 mm 2 mps 656 mmHg 39%
    12:00 +23°C° 0 mm 2 mps 655 mmHg 39%
    13:00 +22°C° 0 mm 3 mps 654 mmHg 38%
    14:00 +24°C° 0 mm 3 mps 654 mmHg 37%
    15:00 +22°C° 0 mm 3 mps 653 mmHg 42%
    16:00 +21°C° 0 mm 3 mps 653 mmHg 47%
    17:00 +20°C° 0 mm 3 mps 652 mmHg 52%
    18:00 +18°C° 0 mm 2 mps 652 mmHg 63%
    19:00 +16°C° 0 mm 2 mps 652 mmHg 73%
    20:00 +13°C° 0 mm 1 mps 652 mmHg 83%
    21:00 +13°C° 0 mm 1 mps 652 mmHg 84%
    22:00 +12°C° 0 mm 1 mps 652 mmHg 84%
    23:00 +12°C° 0 mm 1 mps 652 mmHg 84%

    1 May, Monday

    Time Temperature Precipitation Wind Pressure Humidity
    00:00 +11°C° 0 mm 1 mps 652 mmHg 83%
    01:00 +11°C° 0 mm 1 mps 652 mmHg 82%
    02:00 +11°C° 0 mm 1 mps 651 mmHg 81%
    03:00 +11°C° 0 mm 1 mps 651 mmHg 79%
    04:00 +10°C° 0 mm 1 mps 651 mmHg 77%
    05:00 +10°C° 0 mm 1 mps 651 mmHg 75%
    06:00 +12°C° 0 mm 1 mps 652 mmHg 71%
    07:00 +14°C° 0 mm 1 mps 653 mmHg 66%
    08:00 +15°C° 0 mm 1 mps 654 mmHg 62%
    09:00 +19°C° 0 mm 1 mps 654 mmHg 55%
    10:00 +20°C° 0 mm 2 mps 654 mmHg 48%
    11:00 +23°C° 0 mm 2 mps 655 mmHg 41%
    12:00 +24°C° 0 mm 2 mps 654 mmHg 39%
    13:00 +24°C° 0 mm 3 mps 653 mmHg 37%
    14:00 +25°C° 0 mm 3 mps 652 mmHg 36%
    15:00 +24°C° 0 mm 3 mps 652 mmHg 40%
    16:00 +24°C° 0 mm 3 mps 652 mmHg 44%
    17:00 +23°C° 0 mm 2 mps 651 mmHg 49%
    18:00 +19°C° 0 mm 2 mps 651 mmHg 60%
    19:00 +17°C° 0 mm 2 mps 651 mmHg 70%
    20:00 +14°C° 0 mm 1 mps 651 mmHg 81%
    21:00 +14°C° 0 mm 1 mps 651 mmHg 81%
    22:00 +13°C° 0 mm 1 mps 651 mmHg 81%
    23:00 +12°C° 0 mm 1 mps 651 mmHg 81%

    2 May, Tuesday

    Time Temperature Precipitation Wind Pressure Humidity
    00:00 +12°C° 0 mm 1 mps 650 mmHg 81%
    01:00 +12°C° 0 mm 1 mps 650 mmHg 81%
    02:00 +12°C° 0 mm 1 mps 650 mmHg 81%
    03:00 +12°C° 0 mm 1 mps 650 mmHg 80%
    04:00 +13°C° 0 mm 1 mps 650 mmHg 79%
    05:00 +13°C° 0 mm 1 mps 650 mmHg 77%
    06:00 +14°C° 0 mm 2 mps 650 mmHg 72%
    07:00 +15°C° 0 mm 2 mps 651 mmHg 68%
    08:00 +17°C° 0 mm 2 mps 651 mmHg 63%
    09:00 +18°C° 0 mm 2 mps 651 mmHg 59%
    10:00 +20°C° 0 mm 2 mps 651 mmHg 56%
    11:00 +22°C° 0 mm 3 mps 651 mmHg 52%
    12:00 +22°C° 0 mm 3 mps 651 mmHg 51%
    13:00 +24°C° 0 mm 3 mps 650 mmHg 51%
    14:00 +25°C° 0 mm 3 mps 649 mmHg 50%
    15:00 +24°C° 0 mm 3 mps 649 mmHg 55%
    16:00 +23°C° 0 mm 2 mps 649 mmHg 60%
    17:00 +21°C° 0 mm 2 mps 649 mmHg 65%
    18:00 +19°C° 0 mm 2 mps 649 mmHg 73%
    19:00 +18°C° 0 mm 1 mps 650 mmHg 81%
    20:00 +15°C° 0 mm 1 mps 650 mmHg 88%
    21:00 +15°C° 0 mm 1 mps 650 mmHg 88%
    22:00 +14°C° 0 mm 1 mps 650 mmHg 88%
    23:00 +14°C° 0 mm 1 mps 650 mmHg 88%

    3 May, Wednesday

    Time Temperature Precipitation Wind Pressure Humidity
    00:00 +14°C° 0 mm 1 mps 650 mmHg 87%
    01:00 +14°C° 0 mm 1 mps 650 mmHg 86%
    02:00 +14°C° 0 mm 1 mps 650 mmHg 86%
    03:00 +14°C° 0 mm 1 mps 650 mmHg 85%
    04:00 +14°C° 0 mm 1 mps 650 mmHg 84%
    05:00 +13°C° 0 mm 1 mps 650 mmHg 83%
    06:00 +15°C° 0 mm 1 mps 651 mmHg 78%
    07:00 +18°C° 0 mm 1 mps 652 mmHg 72%
    08:00 +19°C° 0 mm 1 mps 653 mmHg 67%
    09:00 +20°C° 0 mm 2 mps 653 mmHg 61%
    10:00 +23°C° 0 mm 2 mps 654 mmHg 54%
    11:00 +24°C° 0 mm 3 mps 654 mmHg 48%
    12:00 +24°C° 0.2 mm 3 mps 653 mmHg 50%
    13:00 +25°C° 0.2 mm 3 mps 652 mmHg 52%
    14:00 +25°C° 0.2 mm 3 mps 652 mmHg 54%
    15:00 +24°C° 0 mm 3 mps 651 mmHg 57%
    16:00 +22°C° 0 mm 3 mps 651 mmHg 61%
    17:00 +22°C° 0 mm 3 mps 651 mmHg 65%
    18:00 +20°C° 0 mm 2 mps 651 mmHg 73%
    19:00 +19°C° 0 mm 1 mps 650 mmHg 81%
    20:00 +16°C° 0 mm 1 mps 650 mmHg 89%
    21:00 +15°C° 0 mm 1 mps 650 mmHg 89%
    22:00 +15°C° 0 mm 1 mps 650 mmHg 88%
    23:00 +15°C° 0 mm 1 mps 650 mmHg 88%
    Show more